Terug naar catalogus

ONEWEB-0109

ActiefCommunicatiePO
NORAD 47259·PAYLOAD·🇬🇧 United Kingdom

Gelanceerd Dec 18, 2020 vanaf Vostochny Cosmodrome

Loading…

Volgende Passages (komende 24 uur)

TLE

VersSource: CelesTrak SupGP

Epoch: Sep 14, 2026, 15:48 UTC

1 47259C 20100B   26257.65849949  .00002320  00000+0  64550-2 0  2571
2 47259  87.8998 332.9007 0001738  99.0506 325.4699 13.12446906    15

Volg ONEWEB-0109 in realtime met AllMySat

Download on the App Store